Regional Weather Roundup
Issued by NWS

Home | Current Version | Previous Version | Text Only | Print | Product List | Glossary Off
Versions: 1 2 3 4 5 6 7 8 9 10 11 12 13 14 15 16 17 18 19 20 21 22 23 24 25 26 27 28 29 30 31 32 33 34 35 36 37 38 39 40 41 42 43 44 45 46 47 48 49 50

000
ASUS43 KFSD 170502
RWRSD

WEATHER ROUNDUP FOR SOUTH DAKOTA
NATIONAL WEATHER SERVICE SIOUX FALLS SD
1100 PM CST THU NOV 16 2017

NOTE: "FAIR" INDICATES FEW OR NO CLOUDS BELOW 12,000 FEET WITH NO
SIGNIFICANT WEATHER AND/OR OBSTRUCTIONS TO VISIBILITY.


SDZ001>005-009-010-012>017-170600-
NORTHWEST AND NORTH CENTRAL SOUTH DAKOTA

CITY           SKY/WX    TMP DP  RH WIND       PRES   REMARKS
BUFFALO          N/A     39  29  67 N15       29.52S
FAITH            N/A     38  29  70 N16       29.54R
MOBRIDGE       CLOUDY    42  31  64 N13G25    29.49R
$$

SDZ012>016-024>037-041>051-057-063-072>074-170600-
SOUTHWEST AND SOUTH CENTRAL SOUTH DAKOTA

CITY           SKY/WX    TMP DP  RH WIND       PRES   REMARKS
RAPID CTY ARPT MOCLDY    56  30  37 NW28G37   29.55R
PIERRE         CLOUDY    55  33  43 S8        29.46F
CUSTER         CLOUDY    50  30  46 W13       29.63F
ELLSWORTH AFB  PTCLDY    48  29  47 NW33G44   29.55
PHILIP         PTCLDY    51  31  46 SW8       29.48S
PINE RIDGE     CLEAR     41  29  62 NE3       29.59F
SPEARFISH      FAIR      46  30  53 W12G20    29.65R
WINNER         FAIR      57  35  43 S24G33    29.55S
$$

SDZ004>011-016>023-039-040-170600-
NORTHEAST SOUTH DAKOTA

CITY           SKY/WX    TMP DP  RH WIND       PRES   REMARKS
ABERDEEN       CLOUDY    42  29  59 S24G37    29.53F
WATERTOWN      CLOUDY    35  27  72 S20G29    29.64F WCI  24
BROOKINGS      CLOUDY    35  27  72 S20G28    29.70F WCI  24
SISSETON         N/A     32  27  81 SE21G31   29.63F WCI  20
$$

SDZ017-020-022-023-036>040-048>070-170600-
SOUTHEAST SOUTH DAKOTA

CITY           SKY/WX    TMP DP  RH WIND       PRES   REMARKS
SIOUX FALLS    CLOUDY    40  29  64 S15       29.74F
HURON          CLOUDY    43  30  60 S22G30    29.59F
CHAMBERLAIN    CLOUDY    55  37  51 S14       29.55F
MITCHELL       CLOUDY    45  31  58 SE18      29.65S
YANKTON        CLOUDY    42  30  62 SE16      29.71F
$$

ABBREVIATIONS USED IN REMARKS
   TC - TEMPERATURE IN CELSIUS
  WCI - WIND CHILL INDEX
   HX - HEAT INDEX
  VSB - VISIBILITY





USA.gov is the U.S. government's official web portal to all federal, state and local government web resources and services.